Weather History for MDPC - May, 2013

Change the Weather History Date:

Wednesday, May 1, 2013

  Actual Average Record
Temperature  
Mean Temperature 82 °F -  
Max Temperature 89 °F 85 °F 89 °F (2013)
Min Temperature 76 °F 75 °F 71 °F (2011)
Cooling Degree Days 18    
Growing Degree Days 32 (Base 50)    
Moisture  
Dew Point 73 °F    
Average Humidity 76    
Maximum Humidity 89    
Minimum Humidity 56    
Precipitation  
Precipitation 0.00 in - - ()
Sea Level Pressure  
Sea Level Pressure 29.95 in    
Wind  
Wind Speed 6 mph ()    
Max Wind Speed 12 mph    
Max Gust Speed -    
Visibility 6.9 miles    
Events      
Averages and records for this station are not official NWS values.
T = Trace of Precipitation, MM = Missing Value Source: Averaged Metar Reports

Daily Weather History Graph

Daily Weather History Graph

Search for Another Location

Airport or City:

Trip Planner

Search our weather history database for the weather conditions in past years. The results will help you decide how hot, cold, wet, or windy it might be!

Date:

Astronomy

May. 01, 2013 Rise Set
Actual Time 6:05 AM AST 6:55 PM AST
Civil Twilight 5:43 AM AST 7:18 PM AST
Nautical Twilight 5:16 AM AST 7:45 PM AST
Astronomical Twilight 4:48 AM AST 8:12 PM AST
Moon No Moon Rise 11:40 AM AST (5/1)
Length of Visible Light 13h 35m
Length of Day
12h 49m
Waning Gibbous, 59% of the Moon is Illuminated
May 1
Waning Gibbous
May 2
Last Quarter
May 9
New
May 18
First Quarter
May 25
Full

Hourly Weather History & Observations

Time (AST) Temp. Heat Index Dew Point Humidity Pressure Visibility Wind Dir Wind Speed Gust Speed Precip Events Conditions
12:00 AM 78.8 °F - 73.4 °F 83% 29.98 in 6.2 mi ESE 6.9 mph - N/A   Partly Cloudy
1:00 AM 78.8 °F - 73.4 °F 83% 29.98 in 6.2 mi ESE 6.9 mph - N/A   Partly Cloudy
2:00 AM 77.0 °F - 73.4 °F 89% 29.95 in 6.2 mi ESE 5.8 mph - N/A   Partly Cloudy
3:00 AM 77.0 °F - 73.4 °F 89% 29.95 in 6.2 mi ESE 5.8 mph - N/A   Partly Cloudy
4:00 AM 77.0 °F - 73.4 °F 89% 29.95 in 6.2 mi Calm Calm - N/A   Partly Cloudy
5:00 AM 77.0 °F - 73.4 °F 89% 29.95 in 6.2 mi East 4.6 mph - N/A   Partly Cloudy
6:00 AM 77.0 °F - 73.4 °F 89% 29.95 in 6.2 mi ESE 4.6 mph - N/A   Scattered Clouds
7:00 AM 78.8 °F - 73.4 °F 83% 29.98 in 6.2 mi ESE 4.6 mph - N/A   Scattered Clouds
8:00 AM 80 °F - 73 °F 75% 29.99 in 10 mi SE 6.7 mph - -   Partly Cloudy
8:00 AM 80.6 °F 85.4 °F 73.4 °F 79% 29.98 in 6.2 mi SE 6.9 mph - N/A   Mostly Cloudy
9:00 AM 84.2 °F 92.3 °F 75.2 °F 74% 29.92 in 6.2 mi SE 9.2 mph - N/A   Mostly Cloudy
10:00 AM 82.4 °F 88.2 °F 73.4 °F 74% 29.98 in 6.2 mi SE 11.5 mph - N/A   Scattered Clouds
11:00 AM 84 °F - 73 °F 63% 30.01 in 10 mi SE 11.2 mph - -   Partly Cloudy
11:00 AM 84.2 °F 90.9 °F 73.4 °F 70% 30.01 in 6.2 mi SE 10.4 mph - N/A   Scattered Clouds
12:00 PM 86.0 °F 93.4 °F 73.4 °F 66% 29.98 in 6.2 mi SSE 10.4 mph - N/A   Mostly Cloudy
1:00 PM 86.0 °F 93.4 °F 73.4 °F 66% 29.98 in 6.2 mi SSE 9.2 mph - N/A   Mostly Cloudy
2:00 PM 86 °F - 72 °F 56% 29.97 in 10 mi SSE 11.2 mph - -   Partly Cloudy
2:00 PM 86.0 °F 93.4 °F 73.4 °F 66% 29.95 in 6.2 mi SSE 11.5 mph - N/A   Mostly Cloudy
3:00 PM 86.0 °F 93.4 °F 73.4 °F 66% 29.95 in 6.2 mi SE 8.1 mph - N/A   Mostly Cloudy
4:00 PM 82.4 °F 87.2 °F 71.6 °F 70% 29.92 in 6.2 mi SE 8.1 mph - N/A   Mostly Cloudy
5:00 PM 83 °F - 73 °F 65% 29.94 in 10 mi ESE 11.2 mph - -  
5:00 PM 82.4 °F 88.2 °F 73.4 °F 74% 29.92 in 6.2 mi ESE 11.5 mph - N/A   Mostly Cloudy
6:00 PM 80.6 °F 85.4 °F 73.4 °F 79% 29.92 in 6.2 mi ESE 6.9 mph - N/A   Mostly Cloudy
7:00 PM 80.6 °F 85.4 °F 73.4 °F 79% 29.92 in 6.2 mi ESE 5.8 mph - N/A   Scattered Clouds
8:00 PM 80 °F - 72 °F 70% 29.89 in 10 mi East 6.7 mph - -   Scattered Clouds
8:00 PM 78.8 °F - 73.4 °F 83% 29.92 in 6.2 mi ESE 5.8 mph - N/A   Scattered Clouds
9:00 PM 78.8 °F - 73.4 °F 83% 29.92 in 6.2 mi ESE 5.8 mph - N/A   Scattered Clouds
10:00 PM 78.8 °F - 73.4 °F 83% 29.95 in 6.2 mi SE 5.8 mph - N/A   Scattered Clouds
11:00 PM 78.8 °F - 73.4 °F 83% 29.95 in 6.2 mi SE 5.8 mph - N/A   Scattered Clouds